Abilene Dyess, TX

11:18 AM CST on November 21, 2019 (GMT -0600)
Dyess Air Force Base

Weather History for KDYS - July, 2019

Change the Weather History Date:

Wednesday, July 31, 2019

  Actual Average Record
Temperature  
Mean Temperature 86 °F -  
Max Temperature 101 °F 95 °F 105 °F (2012)
Min Temperature 71 °F 74 °F 68 °F (2014)
Cooling Degree Days 20    
Growing Degree Days 36 (Base 50)    
Moisture  
Dew Point 58 °F    
Average Humidity 38    
Maximum Humidity 66    
Minimum Humidity 21    
Precipitation  
Precipitation 0.00 in - - ()
Sea Level Pressure  
Sea Level Pressure 29.89 in    
Wind  
Wind Speed 5 mph (SE)    
Max Wind Speed 14 mph    
Max Gust Speed -    
Visibility 10 miles    
Events      
Averages and records for this station are not official NWS values.
T = Trace of Precipitation, MM = Missing Value Source: NWS Daily Summary

Daily Weather History Graph

Daily Weather History Graph

Search for Another Location

Airport or City:

Astronomy

Jul. 31, 2019 Rise Set
Actual Time 6:53 AM CDT 8:38 PM CDT
Civil Twilight 6:26 AM CDT 9:04 PM CDT
Nautical Twilight 5:53 AM CDT 9:37 PM CDT
Astronomical Twilight 5:19 AM CDT 10:11 PM CDT
Moon 6:11 AM CDT (7/31) 8:37 PM CDT (7/31)
Length of Visible Light 14h 38m
Length of Day
13h 44m
Waning Crescent, 0% of the Moon is Illuminated
Jul 31
Waning Crescent
Jul 31
New
Aug 7
First Quarter
Aug 15
Full
Aug 23
Last Quarter

Hourly Weather History & Observations

Time (CDT) Temp. Heat Index Dew Point Humidity Pressure Visibility Wind Dir Wind Speed Gust Speed Precip Events Conditions
12:56 AM 79.3 °F - 60.6 °F 53% 29.90 in 10.0 mi South 3.5 mph - N/A   Clear
1:56 AM 75.7 °F - 60.8 °F 60% 29.89 in 10.0 mi SSE 5.8 mph - N/A   Clear
2:56 AM 75.4 °F - 60.4 °F 60% 29.88 in 10.0 mi South 4.6 mph - N/A   Clear
3:56 AM 75.2 °F - 59.9 °F 59% 29.87 in 10.0 mi Calm Calm - N/A   Clear
4:56 AM 71.6 °F - 59.5 °F 66% 29.86 in 10.0 mi SSE 4.6 mph - N/A   Clear
5:56 AM 72.1 °F - 59.7 °F 65% 29.87 in 10.0 mi SE 4.6 mph - N/A   Clear
6:56 AM 71.6 °F - 59.5 °F 66% 29.89 in 10.0 mi Calm Calm - N/A   Clear
7:56 AM 76.3 °F - 60.8 °F 59% 29.91 in 10.0 mi South 3.5 mph - N/A   Clear
8:56 AM 83.8 °F 84.3 °F 61.3 °F 47% 29.92 in 10.0 mi SSE 5.8 mph - N/A   Clear
9:56 AM 89.8 °F 89.7 °F 60.8 °F 38% 29.92 in 10.0 mi SSW 5.8 mph - N/A   Clear
10:56 AM 93.9 °F 93.2 °F 58.6 °F 31% 29.92 in 10.0 mi South 6.9 mph - N/A   Clear
11:56 AM 95.7 °F 95.1 °F 58.3 °F 29% 29.92 in 10.0 mi Calm Calm - N/A   Clear
12:56 PM 97.7 °F 96.7 °F 57.0 °F 26% 29.91 in 10.0 mi ESE 11.5 mph - N/A   Scattered Clouds
1:56 PM 97.3 °F 95.8 °F 55.6 °F 25% 29.90 in 10.0 mi Calm Calm - N/A   Mostly Cloudy
2:56 PM 99.3 °F 97.8 °F 54.9 °F 23% 29.87 in 10.0 mi SE 6.9 mph - N/A   Scattered Clouds
3:56 PM 100.8 °F 99.3 °F 54.9 °F 22% 29.86 in 10.0 mi ESE 10.4 mph - N/A   Partly Cloudy
4:29 PM 100.4 °F 98.8 °F 55.4 °F 22% 29.85 in 10.0 mi ESE 9.2 mph - N/A   Scattered Clouds
4:36 PM 100.4 °F 98.8 °F 55.4 °F 22% 29.86 in 10.0 mi Variable 4.6 mph - N/A   Scattered Clouds
4:56 PM 100.4 °F 99.3 °F 55.8 °F 23% 29.85 in 10.0 mi ESE 13.8 mph - N/A   Partly Cloudy
5:56 PM 99.9 °F - 52.9 °F 21% 29.84 in 10.0 mi East 6.9 mph - N/A   Clear
6:56 PM 98.8 °F 96.6 °F 53.2 °F 22% 29.83 in 10.0 mi East 10.4 mph - N/A   Clear
7:56 PM 96.4 °F 94.3 °F 53.6 °F 24% 29.98 in 10.0 mi East 10.4 mph - N/A   Clear
8:56 PM 92.8 °F 91.4 °F 56.8 °F 30% 29.99 in 10.0 mi ESE 11.5 mph - N/A   Clear
9:56 PM 89.8 °F 88.6 °F 57.6 °F 34% 29.84 in 10.0 mi ESE 10.4 mph - N/A   Clear
10:56 PM 87.6 °F 86.7 °F 58.1 °F 37% 29.85 in 10.0 mi ESE 12.7 mph - N/A   Clear
11:56 PM 86.5 °F 85.4 °F 57.2 °F 37% 29.87 in 10.0 mi SE 10.4 mph - N/A   Clear